Regional Weather Roundup
Issued by NWS

Home | Current Version | Previous Version | Graphics & Text | Print | Product List | Glossary Off
Versions: 1 2 3 4 5 6 7 8 9 10 11 12 13 14 15 16 17 18 19 20 21 22 23 24 25 26 27 28 29 30 31 32 33 34 35 36 37 38 39 40 41 42 43 44 45 46 47 48 49 50

000
ASUS43 KDMX 272207
RWRIA

WEATHER ROUNDUP FOR IOWA
NATIONAL WEATHER SERVICE DES MOINES IA
400 PM CST TUE JAN 27 2015

NOTE: "FAIR" INDICATES FEW OR NO CLOUDS BELOW 12,000 FEET WITH NO
SIGNIFICANT WEATHER AND/OR OBSTRUCTIONS TO VISIBILITY.

* - THESE STATIONS ARE NOT NWS STATIONS...THUS NOT UNDER NWS
QUALITY CONTROL.  THEY ALSO DO NOT REPORT WEATHER SUCH
AS PRECIPITATION OR FOG.

IAZ001>003-012>014-020>022-031>034-043>046-272300-
   NORTHWEST IOWA

CITY           SKY/WX    TMP DP  RH WIND       PRES   REMARKS
CARROLL *      SUNNY     46  34  61 SE12      30.08S
CHEROKEE *     SUNNY     45  37  76 SE12      30.06F
DENISON *      SUNNY     48  34  57 SE12      30.04S
LE MARS *      SUNNY     46  36  66 SE12      30.03F
ORANGE CITY *  SUNNY     45  37  76 SE7       30.03F
SHELDON *      SUNNY     43  39  87 SE15      30.03F
SIOUX CITY     SUNNY     49  36  61 SE13      30.03F
SPENCER        MOSUNNY   42  34  73 SE14      30.08S
STORM LAKE *   SUNNY     43  36  75 SE13      30.07S
$$

IAZ055>058-069>071-079>083-090>094-272300-
   SOUTHWEST IOWA

CITY           SKY/WX    TMP DP  RH WIND       PRES   REMARKS
ATLANTIC *     SUNNY     50  32  50 SE9       30.07S
AUDUBON *      SUNNY     46  34  61 SE10      30.09S
CLARINDA *     SUNNY     52  30  43 VRB7G13   30.09F
COUNCIL BLFS * SUNNY     52  32  46 SE12G17   30.02F
CRESTON *      SUNNY     48  32  53 SE10      30.10S
HARLAN  *      SUNNY     50  34  53 SE10      30.09S
LAMONI         SUNNY     48  30  49 SE7       30.10F
RED OAK *      SUNNY     52  32  46 SE10      30.06F
SHENANDOAH *   SUNNY     54  32  43 SE13      30.06F
$$

IAZ047>049-059>061-072>074-084-272300-
   CENTRAL IOWA

CITY           SKY/WX    TMP DP  RH WIND       PRES   REMARKS
AMES           SUNNY     42  32  67 E10       30.13S
ANKENY *       SUNNY     45  32  61 E9        30.14R
CHARITON *     SUNNY     46  32  57 SE6       30.12F
DES MOINES     MOSUNNY   46  30  53 SE8       30.13S
GRINNELL*      CLOUDY    36  30  80 E8        30.18R WCI  29
KNOXVILLE *    SUNNY     43  30  61 E7G13     30.13S
MARSHALLTOWN   CLOUDY    35  30  82 E12       30.15S WCI  27
PELLA *        SUNNY     39  32  75 E9        30.17R WCI  33
PERRY *          N/A     45  34  65 SE10      30.11S
$$

IAZ004>006-015-016-023>025-035-036-272300-
   NORTH CENTRAL IOWA

CITY           SKY/WX    TMP DP  RH WIND       PRES   REMARKS
ALGONA *       CLOUDY    37  36  93 SE9G15    30.12S WCI  31
CLARION *      PTSUNNY   37  36  93 SE12      30.13S WCI  30
ESTHERVILLE    CLOUDY    37  33  85 SE12      30.09F WCI  29
FORT DODGE *   SUNNY     43  34  70 SE10      30.11F
MASON CITY     CLOUDY    34  29  82 SE8       30.15F WCI  27
FOREST CITY *  CLOUDY    36  30  80 SE8       30.13F WCI  29
IOWA FALLS *   CLOUDY    36  32  87 E10       30.16S WCI  28
$$

IAZ007>011-017>019-026>030-037>042-050>054-066-272300-
   NORTHEAST IOWA

CITY           SKY/WX    TMP DP  RH WIND       PRES   REMARKS
CEDAR RAPIDS   CLOUDY    31  26  82 SE3       30.19R
CHARLES CITY * CLOUDY    32  30  93 SE9       30.17F WCI  24
CLINTON *      CLOUDY    27  21  80 N3        30.26S
DECORAH *      CLOUDY    28  23  80 CALM      30.18R
DUBUQUE        CLOUDY    26  20  77 E7        30.20R WCI  18
MONTICELLO *   CLOUDY    30  25  80 E5        30.21R WCI  25
OELWEIN *      CLOUDY    30  25  80 SE5       30.20R WCI  25
WATERLOO       CLOUDY    32  27  81 E7        30.18S WCI  26
$$

IAZ064-065-067-068-078-272300-
   EAST CENTRAL IOWA

CITY           SKY/WX    TMP DP  RH WIND       PRES   REMARKS
DAVENPORT      CLOUDY    27  21  78 E7        30.23R WCI  19
IOWA CITY      CLOUDY    32  26  78 E5        30.23R WCI  27
MT. PLEASANT * CLOUDY    32  28  86 E9        30.21R WCI  24
MUSCATINE *    CLOUDY    34  25  69 CALM      30.24R
QUAD CITIES    CLOUDY    29  22  75 NE7       30.23R WCI  22
$$

IAZ062-063-075>077-085>089-095>099-272300-
   SOUTHEAST IOWA

CITY           SKY/WX    TMP DP  RH WIND       PRES   REMARKS
BURLINGTON     CLOUDY    31  26  82 E8        30.21R WCI  23
FAIRFIELD *    CLOUDY    36  27  69 NE9       30.19S WCI  29
FORT MADISON * CLOUDY    32  28  86 E8        30.21S WCI  25
KEOKUK *       CLOUDY    34  30  86 NE10      30.19S WCI  26
OSKALOOSA *      N/A     36  30  80 E8        30.18R WCI  29
CENTERVILLE *    N/A     45  32  61 E6        30.14S
OTTUMWA        SUNNY     37  29  72 E9        30.17R WCI  30
WASHINGTON *   CLOUDY    32  32 100 E6        30.21R WCI  26
$$

ABBREVIATIONS USED IN REMARKS
   TC - TEMPERATURES IN CELSIUS
  WCI - WIND CHILL INDEX
   HX - HEAT INDEX
  VSB - VISIBILITY
$$



USA.gov is the U.S. government's official web portal to all federal, state and local government web resources and services.